Home   Weather   Charlotte Amalie   Past weeks
Flag for US Virgin Islands

Past Weather in Charlotte Amalie, US Virgin Islands — Yesterday and Last 2 Weeks

Now
84 °F

Passing clouds.


Feels Like: 90 °F
Forecast: 87 / 80 °F
Wind: 13 mph from East

Location: Cyril E. King International Airport

Current Time: Jul 17, 2019 at 8:40:28 am

Latest Report: Jul 17, 2019 at 7:53 am


Visibility: 10 mi

Pressure: 30.06 "Hg

Humidity: 70%

Dew Point: 73 °F

Location of Charlotte AmalieLocation

Past Weather in Charlotte Amalie — Graph

°F

Charlotte Amalie Temperature Yesterday

Maximum temperature yesterday: 90 °F (at 1:53 pm)
Minimum temperature yesterday: 77 °F (at 11:53 pm)
Average temperature yesterday: 85 °F

High & Low Weather Summary for the Past Weeks

 TemperatureHumidityPressure
High92 °F (Jul 15, 2:53 pm)88% (Jul 16, 11:53 pm)30.13 "Hg (Jul 16, 11:53 pm)
Low77 °F (Jul 16, 11:53 pm)48% (Jul 3, 3:53 pm)29.95 "Hg (Jul 3, 3:53 am)
Average84 °F70%30.03 "Hg
* Reported Jul 2 6:53 am — Jul 17 6:53 am, Charlotte Amalie. Weather by CustomWeather, © 2019

Note: Actual official high and low records may vary slightly from our data, if they occured in-between our weather recording intervals... More about our weather records

Advertising

Charlotte Amalie Weather History for the Previous 24 Hours

Scroll right to see more
 ConditionsComfort  
Time TempWeatherWind HumidityBarometerVisibility
6:53 am
Wed, Jul 17
81 °FPassing clouds.7 mph79%30.05 "Hg10 mi
5:53 am79 °FPassing clouds.8 mph82%30.03 "Hg10 mi
4:53 am80 °FClear.10 mph76%30.02 "Hg10 mi
3:53 am79 °FClear.12 mph74%30.01 "Hg10 mi
2:53 am78 °FLight rain. Mostly cloudy.12 mph84%30.02 "Hg10 mi
1:53 am80 °FPassing clouds.14 mph79%30.02 "Hg10 mi
12:53 am79 °FMostly cloudy.9 mph77%30.05 "Hg10 mi
11:53 pm
Tue, Jul 16
77 °FLight rain. Passing clouds.15 mph88%30.08 "Hg10 mi
10:53 pm83 °FPassing clouds.15 mph74%30.07 "Hg10 mi
9:53 pm83 °FPassing clouds.14 mph72%30.06 "Hg10 mi
8:53 pm83 °FPassing clouds.12 mph72%30.05 "Hg10 mi
7:53 pm83 °FClear.10 mph74%30.04 "Hg10 mi
6:53 pm84 °FPassing clouds.9 mph72%30.03 "Hg10 mi
5:53 pm86 °FPassing clouds.12 mph67%30.03 "Hg10 mi
4:53 pm88 °FSunny.15 mph61%30.02 "Hg10 mi
3:53 pm89 °FPassing clouds.14 mph59%30.03 "Hg10 mi
2:53 pm90 °FPassing clouds.13 mph56%30.03 "Hg10 mi
1:53 pm90 °FScattered clouds.9 mph56%30.05 "Hg10 mi
12:53 pm89 °FPassing clouds.12 mph61%30.07 "Hg10 mi
11:53 am87 °FPassing clouds.15 mph67%30.09 "Hg10 mi
10:53 am86 °FScattered clouds.16 mph67%30.08 "Hg10 mi
9:53 am89 °FPassing clouds.10 mph55%30.08 "Hg10 mi
8:53 am86 °FPassing clouds.16 mph65%30.08 "Hg10 mi
Weather by CustomWeather, © 2019

See weather overview